South Bend, IN

11:28 PM EDT on August 28, 2016 (GMT -0400)
South Bend Regional

Weather History for KSBN - March, 2012

Change the Weather History Date:

Sunday, March 11, 2012

  Actual Average Record
Temperature  
Mean Temperature 53 °F 36 °F  
Max Temperature 69 °F 44 °F 78 °F (1990)
Min Temperature 36 °F 27 °F 5 °F (1969)
Degree Days  
Heating Degree Days 12 29  
Month to date heating degree days 268 344  
Since 1 July heating degree days 4351 5033  
Cooling Degree Days 0 0  
Month to date cooling degree days 0 0  
Year to date cooling degree days 0 0  
Growing Degree Days 2 (Base 50)    
Moisture  
Dew Point 28 °F    
Average Humidity 41    
Maximum Humidity 59    
Minimum Humidity 22    
Precipitation  
Precipitation 0.00 in 0.07 in 1.03 in (1957)
Month to date precipitation 0.60 0.84  
Year to date precipitation 5.87 5.08  
Snow  
Snow 0.00 in 0.30 in 6.00 in (1896)
Month to date snowfall 1.5 3.6  
Since 1 July snowfall 51.2 61.7  
Snow Depth 0.00 in    
Sea Level Pressure  
Sea Level Pressure 30.25 in    
Wind  
Wind Speed 10 mph (South)    
Max Wind Speed 17 mph    
Max Gust Speed 21 mph    
Visibility 10 miles    
Events      
T = Trace of Precipitation, MM = Missing Value Source: NWS Daily Summary

Daily Weather History Graph

Daily Weather History Graph

Search for Another Location

Airport or City:

Trip Planner

Search our weather history database for the weather conditions in past years. The results will help you decide how hot, cold, wet, or windy it might be!

Date:

Astronomy

Mar. 11, 2012 Rise Set
Actual Time 8:02 AM EDT 7:47 PM EDT
Civil Twilight 7:35 AM EDT 8:15 PM EDT
Nautical Twilight 7:03 AM EDT 8:47 PM EDT
Astronomical Twilight 6:30 AM EDT 9:20 PM EDT
Moon No Moon Rise 9:34 AM EDT (3/11)
Length of Visible Light 12h 40m
Length of Day
11h 44m
Waning Gibbous, 85% of the Moon is Illuminated
Mar 11
Waning Gibbous
Mar 14
Last Quarter
Mar 22
New
Mar 30
First Quarter
Apr 6
Full

Hourly Weather History & Observations

Time (EDT) Temp. Windchill Dew Point Humidity Pressure Visibility Wind Dir Wind Speed Gust Speed Precip Events Conditions
12:54 AM 42.1 °F 37.1 °F 24.1 °F 49% 30.30 in 10.0 mi SSW 8.1 mph - N/A   Clear
1:54 AM 43.0 °F 38.2 °F 24.1 °F 47% 30.29 in 10.0 mi SSW 8.1 mph - N/A   Clear
3:54 AM 37.9 °F 32.7 °F 24.1 °F 57% 30.29 in 10.0 mi SSW 6.9 mph - N/A   Clear
4:54 AM 39.0 °F 33.4 °F 24.1 °F 55% 30.29 in 10.0 mi SSW 8.1 mph - N/A   Clear
5:54 AM 37.9 °F 30.9 °F 24.1 °F 57% 30.30 in 10.0 mi SSW 10.4 mph - N/A   Clear
6:54 AM 37.9 °F 32.1 °F 24.1 °F 57% 30.30 in 10.0 mi SSW 8.1 mph - N/A   Clear
7:54 AM 37.0 °F 31.0 °F 24.1 °F 59% 30.31 in 10.0 mi SSW 8.1 mph - N/A   Clear
8:54 AM 41.0 °F 36.4 °F 25.0 °F 53% 30.33 in 10.0 mi SSW 6.9 mph - N/A   Clear
9:54 AM 45.0 °F 39.7 °F 25.0 °F 46% 30.33 in 10.0 mi SSW 10.4 mph - N/A   Clear
10:54 AM 51.1 °F - 26.1 °F 38% 30.34 in 10.0 mi SSW 11.5 mph - N/A   Clear
11:54 AM 55.9 °F - 27.0 °F 33% 30.33 in 10.0 mi SSW 9.2 mph - N/A   Clear
12:54 PM 60.1 °F - 27.0 °F 28% 30.32 in 10.0 mi SSW 11.5 mph 18.4 mph N/A   Clear
1:54 PM 63.0 °F - 25.0 °F 24% 30.29 in 10.0 mi SSW 10.4 mph - N/A   Clear
2:54 PM 64.0 °F - 27.0 °F 25% 30.26 in 10.0 mi SSW 9.2 mph - N/A   Clear
3:54 PM 66.9 °F - 28.9 °F 24% 30.22 in 10.0 mi SSW 8.1 mph - N/A   Clear
4:54 PM 68.0 °F - 28.0 °F 22% 30.19 in 10.0 mi South 12.7 mph - N/A   Clear
5:54 PM 68.0 °F - 30.9 °F 25% 30.17 in 10.0 mi South 11.5 mph - N/A   Clear
6:54 PM 64.9 °F - 30.9 °F 28% 30.18 in 10.0 mi South 12.7 mph - N/A   Clear
7:54 PM 62.1 °F - 34.0 °F 35% 30.17 in 10.0 mi South 10.4 mph - N/A   Clear
8:54 PM 60.1 °F - 35.1 °F 39% 30.17 in 10.0 mi SSE 9.2 mph - N/A   Clear
9:54 PM 57.9 °F - 36.0 °F 44% 30.17 in 10.0 mi SE 9.2 mph - N/A   Clear
10:54 PM 57.0 °F - 36.0 °F 45% 30.16 in 10.0 mi SSE 10.4 mph - N/A   Clear
11:54 PM 55.0 °F - 36.0 °F 49% 30.14 in 10.0 mi SSE 10.4 mph - N/A   Partly Cloudy
12:54 AM 55.9 °F - 36.0 °F 47% 30.12 in 10.0 mi SSE 11.5 mph - N/A   Overcast